Brookings, OR

2:55 PM PDT on June 26, 2017 (GMT -0700)
Brookings State

Weather History for KBOK - March, 2013

Change the Weather History Date:

Friday, March 1, 2013

  Actual Average Record
Temperature  
Mean Temperature 49 °F -  
Max Temperature 54 °F 54 °F 79 °F (1936)
Min Temperature 44 °F 41 °F 31 °F (1953)
Degree Days  
Heating Degree Days 16    
Moisture  
Dew Point 51 °F    
Average Humidity 100    
Maximum Humidity 100    
Minimum Humidity 100    
Precipitation  
Precipitation 0.00 in - - ()
Sea Level Pressure  
Sea Level Pressure 30.45 in    
Wind  
Wind Speed 3 mph (WNW)    
Max Wind Speed 7 mph    
Max Gust Speed -    
Visibility 2 miles    
Events Fog    
Averages and records for this station are not official NWS values.
T = Trace of Precipitation, MM = Missing Value Source: NWS Daily Summary

Daily Weather History Graph

Daily Weather History Graph

Search for Another Location

Airport or City:

Trip Planner

Search our weather history database for the weather conditions in past years. The results will help you decide how hot, cold, wet, or windy it might be!

Date:

Astronomy

Mar. 01, 2013 Rise Set
Actual Time 6:51 AM PST 6:07 PM PST
Civil Twilight 6:23 AM PST 6:35 PM PST
Nautical Twilight 5:51 AM PST 7:08 PM PST
Astronomical Twilight 5:18 AM PST 7:40 PM PST
Moon 10:53 PM PST (3/1) 8:37 AM PST (3/1)
Length of Visible Light 12h 12m
Length of Day
11h 16m
Waning Gibbous, 82% of the Moon is Illuminated
Mar 1
Waning Gibbous
Mar 4
Last Quarter
Mar 11
New
Mar 19
First Quarter
Mar 27
Full

Hourly Weather History & Observations

Time (PST) Temp. Dew Point Humidity Pressure Visibility Wind Dir Wind Speed Gust Speed Precip Events Conditions
12:10 AM 50.0 °F 50.0 °F 100% 30.52 in 1.5 mi Calm Calm - N/A   Overcast
12:17 AM 50.0 °F 50.0 °F 100% 30.53 in 3.0 mi Calm Calm - N/A   Overcast
12:29 AM 50.0 °F 50.0 °F 100% 30.53 in 1.8 mi Calm Calm - N/A   Overcast
12:56 AM 50.0 °F 50.0 °F 100% 30.54 in 0.5 mi SW 3.5 mph - N/A Fog Fog
1:04 AM 50.0 °F 50.0 °F 100% 30.53 in 0.2 mi Calm Calm - N/A Fog Fog
1:56 AM 48.9 °F 48.9 °F 100% 30.54 in 0.2 mi South 3.5 mph - N/A Fog Fog
2:56 AM 48.9 °F 48.9 °F 100% 30.52 in 0.2 mi South 3.5 mph - N/A Fog Fog
3:08 AM 48.2 °F 48.2 °F 100% 30.51 in 0.2 mi Calm Calm - N/A Fog Fog
3:16 AM 48.2 °F 48.2 °F 100% 30.52 in 0.2 mi Calm Calm - N/A Fog Fog
4:17 AM 48.2 °F - N/A% 30.51 in 0.2 mi Calm Calm - N/A Fog Fog
4:56 AM 47.8 °F - N/A% 30.51 in 0.8 mi Calm Calm - N/A   Overcast
5:00 AM 48.2 °F - N/A% 30.50 in 1.2 mi Calm Calm - N/A   Overcast
5:03 AM 48.2 °F - N/A% 30.50 in 2.0 mi Calm Calm - N/A   Overcast
5:19 AM 48.2 °F - N/A% 30.49 in 1.5 mi Calm Calm - N/A   Overcast
5:26 AM 48.2 °F - N/A% 30.50 in 3.0 mi Variable 3.5 mph - N/A   Overcast
5:38 AM 48.2 °F - N/A% 30.49 in 1.5 mi SE 3.5 mph - N/A   Overcast
5:40 AM 48.2 °F - N/A% 30.49 in 1.0 mi Variable 3.5 mph - N/A   Overcast
5:48 AM 48.2 °F - N/A% 30.49 in 0.8 mi East 3.5 mph - N/A   Overcast
6:01 AM 48.2 °F - N/A% 30.48 in 1.2 mi Variable 4.6 mph - N/A   Overcast
6:08 AM 48.2 °F - N/A% 30.48 in 1.5 mi Variable 4.6 mph - N/A   Overcast
6:17 AM 48.2 °F - N/A% 30.48 in 3.0 mi Calm Calm - N/A   Overcast
6:36 AM 48.2 °F - N/A% 30.46 in 10.0 mi ENE 5.8 mph - N/A   Scattered Clouds
6:56 AM 47.8 °F - N/A% 30.46 in 10.0 mi East 5.8 mph - N/A   Clear
8:26 AM 48.2 °F - N/A% 30.47 in 7.0 mi WNW 4.6 mph - N/A   Scattered Clouds
8:28 AM 48.2 °F - N/A% 30.47 in 0.8 mi WNW 4.6 mph - N/A   Mostly Cloudy
8:30 AM 48.2 °F - N/A% 30.47 in 0.2 mi WNW 4.6 mph - N/A Fog Fog
8:38 AM 48.2 °F - N/A% 30.48 in 0.2 mi NNW 6.9 mph - N/A Fog Fog
8:56 AM 47.8 °F - N/A% 30.49 in 0.5 mi North 4.6 mph - N/A Fog Fog
8:59 AM 48.2 °F - N/A% 30.48 in 1.0 mi North 4.6 mph - N/A   Overcast
9:01 AM 48.2 °F - N/A% 30.48 in 1.8 mi NNW 5.8 mph - N/A   Overcast
9:03 AM 48.2 °F - N/A% 30.48 in 3.0 mi NNW 4.6 mph - N/A   Overcast
9:36 AM 51.8 °F - N/A% 30.48 in 10.0 mi WNW 5.8 mph - N/A   Scattered Clouds
9:45 AM 51.8 °F - N/A% 30.48 in 10.0 mi Variable 4.6 mph - N/A   Mostly Cloudy
10:07 AM 48.2 °F - N/A% 30.48 in 3.0 mi WNW 4.6 mph - N/A   Overcast
10:26 AM 48.2 °F - N/A% 30.48 in 1.8 mi WNW 4.6 mph - N/A   Overcast
10:29 AM 48.2 °F - N/A% 30.48 in 1.0 mi WNW 5.8 mph - N/A   Overcast
10:39 AM 48.2 °F - N/A% 30.48 in 0.2 mi WNW 3.5 mph - N/A Fog Fog
10:45 AM 48.2 °F - N/A% 30.47 in 0.8 mi WNW 3.5 mph - N/A   Overcast
10:47 AM 48.2 °F - N/A% 30.47 in 1.2 mi WNW 3.5 mph - N/A   Overcast
10:56 AM 48.9 °F - N/A% 30.48 in 4.0 mi Calm Calm - N/A   Haze
11:42 AM 50.0 °F 50.0 °F 100% 30.47 in 1.8 mi WNW 6.9 mph - N/A   Overcast
11:48 AM 50.0 °F 50.0 °F 100% 30.46 in 1.0 mi WNW 5.8 mph - N/A   Overcast
11:56 AM 50.0 °F 50.0 °F 100% 30.47 in 2.5 mi WNW 5.8 mph - N/A   Overcast
12:06 PM 51.8 °F 51.8 °F 100% 30.46 in 1.2 mi WNW 6.9 mph - N/A   Overcast
12:10 PM 51.8 °F 51.8 °F 100% 30.46 in 0.8 mi WNW 5.8 mph - N/A   Overcast
12:21 PM 50.0 °F 50.0 °F 100% 30.46 in 0.2 mi WNW 6.9 mph - N/A Fog Fog
12:34 PM 51.8 °F 51.8 °F 100% 30.44 in 0.8 mi WNW 5.8 mph - N/A   Overcast
12:36 PM 51.8 °F 51.8 °F 100% 30.44 in 1.2 mi WNW 5.8 mph - N/A   Overcast
12:38 PM 51.8 °F 51.8 °F 100% 30.44 in 2.0 mi West 5.8 mph - N/A   Overcast
12:46 PM 51.8 °F 51.8 °F 100% 30.44 in 6.0 mi West 4.6 mph - N/A   Overcast
12:56 PM 52.0 °F 52.0 °F 100% 30.45 in 2.5 mi WNW 4.6 mph - N/A   Overcast
12:59 PM 51.8 °F 51.8 °F 100% 30.43 in 1.0 mi WNW 6.9 mph - N/A   Overcast
1:01 PM 51.8 °F 51.8 °F 100% 30.43 in 0.5 mi WNW 5.8 mph - N/A Fog Fog
1:10 PM 51.8 °F 51.8 °F 100% 30.43 in 0.2 mi WNW 6.9 mph - N/A Fog Fog
1:21 PM 51.8 °F 51.8 °F 100% 30.43 in 0.2 mi WNW 6.9 mph - N/A Fog Fog
1:34 PM 51.8 °F 51.8 °F 100% 30.42 in 0.2 mi WNW 4.6 mph - N/A Fog Fog
1:39 PM 53.6 °F 53.6 °F 100% 30.42 in 0.8 mi West 5.8 mph - N/A   Overcast
1:41 PM 53.6 °F 53.6 °F 100% 30.41 in 1.2 mi West 5.8 mph - N/A   Overcast
1:43 PM 53.6 °F 53.6 °F 100% 30.41 in 4.0 mi WNW 5.8 mph - N/A   Mostly Cloudy
2:56 PM 54.9 °F 54.9 °F 100% 30.39 in 8.0 mi West 5.8 mph - N/A   Clear
3:56 PM 54.9 °F 54.9 °F 100% 30.38 in 8.0 mi SSW 3.5 mph - N/A   Clear
4:56 PM 50.0 °F 50.0 °F 100% 30.36 in 6.0 mi SSE 5.8 mph - N/A   Clear
5:06 PM 48.2 °F 48.2 °F 100% 30.35 in 2.5 mi SSE 4.6 mph - N/A   Partly Cloudy
5:11 PM 48.2 °F 48.2 °F 100% 30.35 in 1.0 mi South 3.5 mph - N/A   Mist
5:13 PM 48.2 °F 48.2 °F 100% 30.35 in 0.5 mi Variable 3.5 mph - N/A Fog Fog
5:24 PM 48.2 °F 48.2 °F 100% 30.35 in 0.2 mi SSE 4.6 mph - N/A Fog Fog
5:56 PM 46.9 °F 46.9 °F 100% 30.36 in 0.2 mi SSE 3.5 mph - N/A Fog Fog
6:31 PM 46.4 °F 46.4 °F 100% - - North - - N/A   Unknown
6:56 PM 46.9 °F - N/A% 30.37 in 0.2 mi Variable 3.5 mph - N/A Fog Fog
7:30 PM 46.4 °F - N/A% 30.35 in 0.2 mi Calm Calm - N/A Fog Fog
7:56 PM 46.9 °F - N/A% 30.37 in 0.2 mi Calm Calm - N/A Fog Fog
8:56 PM 45.9 °F - N/A% 30.37 in 0.2 mi Calm Calm - N/A Fog Fog
9:56 PM 45.9 °F - N/A% 30.37 in 0.2 mi Calm Calm - N/A Fog Fog
10:56 PM 45.9 °F - N/A% 30.35 in 0.2 mi Calm Calm - N/A Fog Fog
11:07 PM 46.4 °F - N/A% 30.34 in 0.5 mi Calm Calm - N/A Fog Fog
11:45 PM 44.6 °F - N/A% 30.33 in 0.2 mi Calm Calm - N/A Fog Fog
11:56 PM 45.9 °F - N/A% 30.34 in 0.2 mi Calm Calm - N/A Fog Fog